[[{"header":{"parameterUnit":"m.s-1","parameterCategory":1,"la1":30.2991,"la2":30.254,"lo1":-89.0895,"lo2":-89.0444,"dy":0.0017,"dx":0.0017,"nx":28,"ny":28,"refTime":"2025-12-16T09:00:00:Z","depth":0,"parameterNumber":2,"parameterNumberName":"U-component_of_WINDS"},"data":[0,0,0,0,0,0,0,0,0,0,0,0,0,0,0,0,0,0,0,0,0,0,0,0,0,0,0,0,0,0,0,0,0,0,0,0,0,0,0,0,0,0,0,0,0,0,0,0,0,0,0,0,0,0,0,0,0,0,-3.5918,-3.5919,0,-3.6023,-3.6024,-3.6025,-3.5926,-3.5922,-3.5919,-3.5915,-3.6026,-3.6033,-3.6039,0,0,0,0,0,0,0,0,0,0,0,0,0,-3.5636,-3.5641,-3.5918,-3.5919,-3.592,-3.6023,-3.6024,-3.6026,-3.5927,-3.5922,-3.5917,-3.5913,-3.6024,-3.6032,-3.604,0,0,0,0,0,0,0,0,0,0,0,0,0,-3.5751,-3.5643,-3.5917,-3.5883,-3.5881,-3.6022,-3.6024,-3.6026,-3.5928,-3.5922,-3.5916,-3.5911,-3.6022,-3.6031,-3.6041,-3.6222,0,0,-3.6072,-3.6076,0,0,0,0,0,0,0,0,-3.5745,-3.5762,-3.5887,-3.5886,-3.5884,-3.5955,-3.5965,-3.6092,-3.593,-3.5911,-3.5915,-3.5908,-3.6008,-3.6019,-3.6051,-3.6227,-3.6232,-3.6073,-3.6079,-3.6083,-3.6086,0,0,0,0,0,0,0,-3.5737,-3.5757,-3.5959,-3.5889,-3.5887,-3.5864,-3.5874,-3.5989,-3.5992,-3.5912,-3.5905,-3.5918,-3.6006,-3.6042,-3.6053,-3.6234,-3.6072,-3.6081,-3.6087,-3.6091,-3.6566,-3.6572,0,0,0,0,0,0,-3.5732,-3.5751,-3.5956,-3.5962,-3.5798,-3.5874,-3.5885,-3.5939,-3.599,-3.5992,-3.5923,-3.5913,-3.6028,-3.6042,-3.6057,-3.6274,-3.6083,-3.6092,-3.6098,-3.6559,-3.6567,-3.6574,0,0,0,0,0,0,-3.5726,-3.5751,-3.5952,-3.5855,-3.5878,-3.5885,-3.5946,-3.5944,-3.598,-3.5999,-3.5999,-3.596,-3.6024,-3.6043,-3.6182,-3.6277,-3.6097,-3.6106,-3.6552,-3.6562,-3.6571,-3.671,0,0,0,0,0,0,-3.5719,-3.575,-3.5818,-3.5857,-3.5884,-3.6075,-3.5952,-3.595,-3.5997,-3.5985,-3.6033,-3.6035,-3.6021,-3.6168,-3.6192,-3.6287,-3.6114,-3.6543,-3.6556,-3.6568,-3.6697,-3.6723,-3.6746,0,0,0,0,0,-3.5709,-3.5853,-3.5822,-3.5847,-3.5969,-3.608,-3.6096,-3.6075,-3.6005,-3.6074,-3.6086,-3.6034,-3.6262,-3.6183,-3.6209,-3.6309,-3.6537,-3.6552,-3.6567,-3.6686,-3.6718,-3.6745,0,0,0,0,0,0,-3.5826,-3.5858,-3.5823,-3.5984,-3.603,-3.6063,-3.615,-3.6109,-3.6177,-3.6163,-3.6135,-3.6147,-3.6295,-3.6315,-3.6227,-3.6488,-3.6388,-3.6409,-3.647,-3.65,-3.6524,-3.6518,-3.6122,0,0,0,0,0,-3.587,-3.5957,-3.598,-3.6119,-3.6144,-3.6143,-3.6191,-3.6171,-3.6218,-3.6237,-3.6259,-3.6308,-3.6391,-3.6446,-3.6523,-3.6698,-3.6709,-3.678,-3.6804,-3.6824,-3.6844,-3.694,-3.6973,-3.6623,-3.6623,-3.6623,0,0,-3.5963,-3.5991,-3.6047,-3.6144,-3.6177,-3.6269,-3.616,-3.6262,-3.633,-3.6253,-3.6386,-3.6404,-3.6457,-3.6616,-3.6686,-3.6637,-3.6942,-3.6843,-3.6859,-3.6868,-3.6959,-3.6992,-3.7022,-3.6633,-3.6632,-3.663,0,0,-3.618,-3.6208,-3.6329,-3.6365,-3.6416,-3.6414,-3.6444,-3.6483,-3.6492,-3.6625,-3.6569,-3.6651,-3.6793,-3.6834,-3.6873,-3.7106,-3.7061,-3.7132,-3.7261,-3.7355,-3.7383,-3.7407,-3.7493,-3.7524,-3.715,-3.715,-3.7151,0,-3.629,-3.6424,-3.6396,-3.6502,-3.6548,-3.648,-3.6604,-3.6639,-3.6714,-3.6748,-3.6691,-3.6869,-3.69,-3.7068,-3.7125,-3.7158,-3.7192,-3.7127,-3.7381,-3.7405,-3.7427,-3.7509,-3.7541,-3.7159,-3.7158,-3.7157,-3.7156,0,-3.6558,-3.6652,-3.6744,-3.6817,-3.6872,-3.6986,-3.6977,-3.7036,-3.7011,-3.7016,-3.7154,-3.7188,-3.7271,-3.7309,-3.7286,-3.7475,-3.7443,-3.7384,-3.7284,-3.747,-3.7546,-3.7577,-3.7171,-3.7168,-3.7166,-3.7163,0,0,-3.6853,-3.6909,-3.6943,-3.6977,-3.7028,-3.7102,-3.7213,-3.7294,-3.7347,-3.74,-3.7495,-3.7617,-3.7563,-3.7608,-3.7588,-3.7671,-3.7856,-3.7602,-3.7602,-3.765,-3.807,-3.8117,-3.8153,-3.7826,-3.7831,-3.7836,-3.8067,0,-3.7074,-3.7266,-3.7245,-3.743,-3.7518,-3.7456,-3.7553,-3.7597,-3.7604,-3.7681,-3.769,-3.7778,-3.7698,-3.7725,-3.7804,-3.7817,-3.7941,-3.78,-3.7916,-3.7921,-3.7908,-3.8193,-3.8242,-3.8458,-3.8096,-3.8101,-3.8105,0,-3.7357,-3.742,-3.7614,-3.7654,-3.769,-3.7778,-3.7851,-3.7925,-3.7973,-3.7973,-3.8024,-3.799,-3.8104,-3.7999,-3.8158,-3.8062,-3.8108,-3.8122,-3.813,-3.8142,-3.8026,-3.8216,-3.8526,-3.856,-3.8151,-3.8147,-3.8144,0,-3.7557,-3.769,-3.7824,-3.7854,-3.7902,-3.7966,-3.799,-3.8032,-3.8083,-3.8147,-3.818,-3.8257,-3.83,-3.8361,-3.835,-3.8274,-3.8512,-3.8406,-3.8518,-3.8519,-3.8573,-3.8571,-3.8899,-3.8598,-3.8598,-3.8597,-3.8596,0,-3.7807,-3.7929,-3.7914,-3.7997,-3.8132,-3.8106,-3.8241,-3.8257,-3.8295,-3.8381,-3.8331,-3.8413,-3.8392,-3.8474,-3.8465,-3.8599,-3.8618,-3.8623,-3.862,-3.863,-3.863,-3.8662,-3.8648,-3.8606,-3.8604,-3.8602,-3.8601,0,-3.8054,-3.8049,-3.8191,-3.8225,-3.8237,-3.8335,-3.8365,-3.8444,-3.8447,-3.8557,-3.8581,-3.8587,-3.868,-3.8674,-3.878,-3.8775,-3.8941,-3.8919,-3.8925,-3.8921,-3.9035,-3.9025,-3.9397,-3.9446,-3.9111,-3.9114,-3.9117,0,-3.8216,-3.8308,-3.8352,-3.8406,-3.8434,-3.852,-3.8571,-3.855,-3.8605,-3.8668,-3.874,-3.8829,-3.8899,-3.9052,-3.9067,-3.9148,-3.9129,-3.9254,-3.9141,-3.9148,-3.9135,-3.9131,-3.9141,-3.9277,-3.9281,-3.9284,-3.9286,0,-3.8505,-3.8497,-3.8572,-3.8648,-3.871,-3.8768,-3.8821,-3.8868,-3.8852,-3.8918,-3.9013,-3.9067,-3.9175,-3.9265,-3.9342,-3.9368,-3.9327,-3.9321,-3.9352,-3.9364,-3.9365,-3.9369,-3.8989,-3.9314,-3.9311,-3.9309,-3.9307,-3.9306,-3.8716,-3.8796,-3.884,-3.8926,-3.8963,-3.9014,-3.909,-3.9103,-3.9181,-3.9267,-3.9249,-3.9357,-3.9404,-3.9503,-3.9537,-3.9621,-3.9577,-3.9621,-3.9632,-3.9645,-3.9659,-3.9349,-3.9635,-3.9634,-3.9633,-3.9633,-3.9632,0,-3.9005,-3.9029,-3.9109,-3.9184,-3.9253,-3.9205,-3.9261,-3.9322,-3.9417,-3.9464,-3.9534,-3.9644,-3.9731,-3.9752,-3.9836,-3.99,-3.9883,-3.9923,-3.992,-3.9927,-3.9692,-3.9659,-3.9936,-3.9936,-3.9936,-3.9936,-3.9936,-3.9935,-3.9163,-3.9296,-3.9295,-3.9447,-3.9471,-3.9575,-3.9612,-3.9659,-3.9697,-3.9822,-3.9893,-3.9906,-3.9944,-4.003,-4.0108,-4.0112,-4.0147,-4.0196,-4.0193,-3.9974,-3.9943,-3.9915,-3.9883,-4.0203,-4.0203,-4.0421,-4.0423,-4.0425]},{"header":{"parameterUnit":"m.s-1","parameterCategory":1,"la1":30.2991,"la2":30.254,"lo1":-89.0895,"lo2":-89.0444,"dy":0.0017,"dx":0.0017,"nx":28,"ny":28,"refTime":"2025-12-16T09:00:00:Z","depth":0,"parameterNumber":3,"parameterNumberName":"V-component_of_WINDS"},"data":[0,0,0,0,0,0,0,0,0,0,0,0,0,0,0,0,0,0,0,0,0,0,0,0,0,0,0,0,0,0,0,0,0,0,0,0,0,0,0,0,0,0,0,0,0,0,0,0,0,0,0,0,0,0,0,0,0,0,-2.6232,-2.6232,0,-2.6189,-2.6188,-2.6188,-2.6122,-2.6121,-2.612,-2.6119,-2.6075,-2.6075,-2.6075,0,0,0,0,0,0,0,0,0,0,0,0,0,-2.6259,-2.6259,-2.6233,-2.6232,-2.6231,-2.6189,-2.6188,-2.6188,-2.6123,-2.6121,-2.612,-2.6118,-2.6075,-2.6075,-2.6075,0,0,0,0,0,0,0,0,0,0,0,0,0,-2.6235,-2.6259,-2.6233,-2.6194,-2.619,-2.6189,-2.6188,-2.6187,-2.6123,-2.6121,-2.6119,-2.6118,-2.6075,-2.6075,-2.6075,-2.6108,0,0,-2.6074,-2.6074,0,0,0,0,0,0,0,0,-2.6236,-2.6234,-2.62,-2.6196,-2.6192,-2.6159,-2.6181,-2.6161,-2.6123,-2.6148,-2.6119,-2.6117,-2.6104,-2.6102,-2.6097,-2.6106,-2.6104,-2.6074,-2.6074,-2.6074,-2.6074,0,0,0,0,0,0,0,-2.6238,-2.6235,-2.6215,-2.62,-2.6195,-2.6178,-2.6173,-2.6177,-2.6137,-2.6146,-2.6141,-2.6137,-2.6102,-2.6098,-2.6096,-2.6104,-2.6074,-2.6074,-2.6074,-2.6074,-2.6136,-2.6138,0,0,0,0,0,0,-2.6246,-2.6237,-2.6217,-2.6214,-2.621,-2.6179,-2.6173,-2.6172,-2.6136,-2.6129,-2.6138,-2.6134,-2.6099,-2.6096,-2.6094,-2.613,-2.6074,-2.6074,-2.6074,-2.6135,-2.6137,-2.6139,0,0,0,0,0,0,-2.6246,-2.6244,-2.6218,-2.6224,-2.622,-2.6181,-2.6179,-2.6172,-2.6167,-2.6131,-2.6123,-2.6142,-2.6097,-2.6094,-2.6105,-2.6127,-2.6074,-2.6074,-2.6133,-2.6135,-2.6138,-2.6203,0,0,0,0,0,0,-2.6247,-2.6245,-2.6258,-2.6225,-2.622,-2.623,-2.6181,-2.6172,-2.6167,-2.6161,-2.6132,-2.6125,-2.6096,-2.6105,-2.6105,-2.6126,-2.6074,-2.613,-2.6134,-2.6137,-2.6198,-2.6207,-2.6215,0,0,0,0,0,-2.6249,-2.6278,-2.6259,-2.6256,-2.6235,-2.6232,-2.6229,-2.6194,-2.6169,-2.6181,-2.6157,-2.6126,-2.6125,-2.6107,-2.6106,-2.6128,-2.6129,-2.6133,-2.6137,-2.6195,-2.6205,-2.6215,0,0,0,0,0,0,-2.6315,-2.6273,-2.6251,-2.6271,-2.6255,-2.6221,-2.6235,-2.6207,-2.6198,-2.6193,-2.615,-2.6144,-2.616,-2.6145,-2.6125,-2.6157,-2.6122,-2.6126,-2.6167,-2.6177,-2.6185,-2.6188,-2.6074,0,0,0,0,0,-2.6332,-2.6333,-2.6297,-2.6318,-2.6311,-2.6275,-2.6272,-2.6247,-2.6229,-2.6222,-2.6199,-2.6183,-2.6178,-2.6177,-2.6171,-2.6196,-2.6188,-2.621,-2.6218,-2.6225,-2.6229,-2.6239,-2.6248,-2.6151,-2.6151,-2.6151,0,0,-2.6367,-2.6344,-2.6348,-2.633,-2.6315,-2.6317,-2.6269,-2.6274,-2.6274,-2.6223,-2.6231,-2.6213,-2.6192,-2.621,-2.6216,-2.6198,-2.6254,-2.623,-2.6236,-2.6236,-2.6244,-2.6253,-2.6261,-2.6154,-2.6154,-2.6153,0,0,-2.6431,-2.6415,-2.643,-2.6415,-2.6393,-2.6368,-2.6372,-2.6341,-2.6327,-2.6335,-2.6296,-2.6296,-2.629,-2.6276,-2.6269,-2.6327,-2.6297,-2.6326,-2.6369,-2.6379,-2.6387,-2.6393,-2.6413,-2.642,-2.633,-2.633,-2.633,0,-2.6478,-2.6479,-2.6441,-2.6447,-2.644,-2.6393,-2.6408,-2.6396,-2.6373,-2.6369,-2.6348,-2.6339,-2.6322,-2.6334,-2.6348,-2.6344,-2.6346,-2.6329,-2.6389,-2.6395,-2.6401,-2.6418,-2.6426,-2.6334,-2.6333,-2.6333,-2.6333,0,-2.6536,-2.6538,-2.6553,-2.6531,-2.6526,-2.6536,-2.65,-2.6499,-2.6474,-2.6451,-2.6459,-2.6436,-2.6424,-2.6426,-2.6402,-2.6434,-2.6423,-2.6397,-2.636,-2.6414,-2.643,-2.6437,-2.6339,-2.6338,-2.6336,-2.6336,0,0,-2.6642,-2.6598,-2.6604,-2.6593,-2.6564,-2.6564,-2.6572,-2.656,-2.656,-2.6545,-2.655,-2.6546,-2.652,-2.6512,-2.6485,-2.6495,-2.654,-2.6466,-2.6465,-2.648,-2.6574,-2.6593,-2.6602,-2.6521,-2.6522,-2.6523,-2.6575,0,-2.67,-2.671,-2.6676,-2.6696,-2.6696,-2.665,-2.6657,-2.664,-2.6619,-2.6616,-2.6592,-2.6589,-2.6556,-2.6551,-2.6558,-2.6533,-2.6558,-2.6529,-2.6524,-2.6524,-2.653,-2.6611,-2.6632,-2.6682,-2.6581,-2.6582,-2.6583,0,-2.6769,-2.6757,-2.6777,-2.6745,-2.6744,-2.6751,-2.6736,-2.6734,-2.6713,-2.6697,-2.6687,-2.6656,-2.6661,-2.6626,-2.6631,-2.6612,-2.6608,-2.6596,-2.6597,-2.6594,-2.6556,-2.6609,-2.6697,-2.6705,-2.6593,-2.6592,-2.6591,0,-2.6842,-2.6832,-2.6841,-2.6833,-2.6798,-2.6803,-2.6788,-2.6766,-2.676,-2.6747,-2.6743,-2.6732,-2.6725,-2.6716,-2.6683,-2.6661,-2.6692,-2.6655,-2.6678,-2.6678,-2.6686,-2.6686,-2.6773,-2.6685,-2.6685,-2.6685,-2.6684,0,-2.691,-2.6923,-2.6873,-2.688,-2.6893,-2.6853,-2.6867,-2.6848,-2.6828,-2.6829,-2.6789,-2.6791,-2.6747,-2.6743,-2.6717,-2.6725,-2.6723,-2.6709,-2.6702,-2.6712,-2.6714,-2.6708,-2.6703,-2.6686,-2.6686,-2.6686,-2.6685,0,-2.6994,-2.6961,-2.6969,-2.6934,-2.6925,-2.6937,-2.6906,-2.691,-2.6886,-2.6888,-2.6886,-2.6848,-2.6842,-2.6808,-2.6794,-2.6776,-2.6792,-2.6779,-2.6799,-2.6794,-2.6819,-2.6817,-2.6906,-2.6915,-2.6821,-2.6822,-2.6823,0,-2.7039,-2.7048,-2.7014,-2.7012,-2.6999,-2.6996,-2.6989,-2.6951,-2.6946,-2.6922,-2.6928,-2.6919,-2.6909,-2.6901,-2.6872,-2.686,-2.6845,-2.6877,-2.6843,-2.6853,-2.6844,-2.6844,-2.6844,-2.6884,-2.6886,-2.6887,-2.6887,0,-2.7122,-2.7105,-2.7098,-2.7085,-2.7079,-2.7066,-2.7052,-2.7052,-2.7009,-2.7005,-2.6998,-2.6991,-2.6976,-2.6966,-2.695,-2.6934,-2.6903,-2.6898,-2.6903,-2.6913,-2.6924,-2.6917,-2.6818,-2.6896,-2.6895,-2.6895,-2.6894,-2.6894,-2.7187,-2.7193,-2.7169,-2.7162,-2.7147,-2.7134,-2.7135,-2.7111,-2.7104,-2.7089,-2.7066,-2.7062,-2.7039,-2.7014,-2.7,-2.6996,-2.6978,-2.6985,-2.6987,-2.6989,-2.6993,-2.6926,-2.6993,-2.6992,-2.6992,-2.6992,-2.6991,0,-2.7267,-2.725,-2.7244,-2.7224,-2.7218,-2.719,-2.7172,-2.7169,-2.7165,-2.7147,-2.7137,-2.7128,-2.7119,-2.7089,-2.7076,-2.7078,-2.7063,-2.7075,-2.7074,-2.7071,-2.701,-2.7007,-2.7087,-2.7087,-2.7087,-2.7087,-2.7087,-2.7087,-2.7308,-2.7315,-2.7296,-2.7294,-2.7276,-2.7271,-2.7263,-2.7251,-2.7236,-2.7227,-2.7219,-2.7199,-2.7176,-2.716,-2.715,-2.7141,-2.7137,-2.7154,-2.7141,-2.7085,-2.7076,-2.7067,-2.7063,-2.7154,-2.7154,-2.7202,-2.7202,-2.7202]}]]